RLU287 ULLI-ULKK

Flight info

Callsign RLU287
Flight time N/A
Altitude 29000
Route N0420F290 KERIS P989 ARMAB
Aircraft CRJ1/M-J/L

Departure

Time N/A
Airport Pulkovo Airport (ULLI)

Arrival

Time 2026-05-05 19:46
Airport Kotlas Airport (ULKK)
Time Latitude Longitude Altitude Speed Heading
2026-05-05 18:55 60.39733 36.90778 28700 ft 483 kts 78°
2026-05-05 18:55 60.40460 36.97455 28698 ft 483 kts 78°
2026-05-05 18:55 60.41562 37.07645 28695 ft 482 kts 78°
2026-05-05 18:56 60.42974 37.20843 28697 ft 482 kts 78°
2026-05-05 18:56 60.44383 37.34129 28701 ft 482 kts 79°
2026-05-05 18:57 60.45771 37.47371 28696 ft 482 kts 79°
2026-05-05 18:57 60.47145 37.60715 28694 ft 481 kts 79°
2026-05-05 18:58 60.48521 37.73895 28695 ft 481 kts 78°
2026-05-05 18:58 60.49938 37.87191 28695 ft 481 kts 79°
2026-05-05 18:59 60.51313 38.00401 28695 ft 480 kts 79°
2026-05-05 18:59 60.52682 38.13739 28693 ft 480 kts 79°
2026-05-05 19:00 60.54029 38.26946 28694 ft 480 kts 79°
2026-05-05 19:00 60.55363 38.40178 28702 ft 479 kts 79°
2026-05-05 19:01 60.56687 38.53455 28700 ft 479 kts 80°
2026-05-05 19:01 60.58005 38.66804 28700 ft 479 kts 80°
2026-05-05 19:02 60.59298 38.80058 28717 ft 479 kts 80°
2026-05-05 19:02 60.60552 38.93355 28708 ft 479 kts 82°
2026-05-05 19:03 60.61697 39.06750 28703 ft 479 kts 82°
2026-05-05 19:03 60.62830 39.20064 28706 ft 479 kts 82°
2026-05-05 19:04 60.63956 39.33493 28710 ft 479 kts 82°
2026-05-05 19:04 60.65062 39.46826 28712 ft 479 kts 82°
2026-05-05 19:05 60.66156 39.60243 28711 ft 479 kts 82°
2026-05-05 19:05 60.67236 39.73624 28720 ft 479 kts 82°
2026-05-05 19:06 60.68301 39.86990 28719 ft 479 kts 83°
2026-05-05 19:06 60.69352 40.00380 28726 ft 479 kts 83°
2026-05-05 19:07 60.70393 40.13833 28732 ft 479 kts 83°
2026-05-05 19:07 60.71420 40.27243 28735 ft 479 kts 83°
2026-05-05 19:08 60.72432 40.40649 28728 ft 479 kts 83°
2026-05-05 19:08 60.73432 40.54088 28735 ft 479 kts 83°
2026-05-05 19:09 60.74421 40.67554 28724 ft 479 kts 83°
2026-05-05 19:09 60.75400 40.81089 28731 ft 479 kts 83°
2026-05-05 19:10 60.76359 40.94548 28729 ft 480 kts 83°
2026-05-05 19:10 60.76965 41.03155 28730 ft 480 kts 83°
2026-05-05 19:11 60.77902 41.16638 28740 ft 480 kts 83°
2026-05-05 19:11 60.78824 41.30096 28733 ft 480 kts 83°
2026-05-05 19:12 60.79739 41.43662 28731 ft 480 kts 84°
2026-05-05 19:12 60.80622 41.57182 28738 ft 480 kts 84°
2026-05-05 19:13 60.81446 41.70720 28743 ft 480 kts 84°
2026-05-05 19:13 60.82273 41.84365 28740 ft 480 kts 84°
2026-05-05 19:14 60.83078 41.97908 28738 ft 480 kts 84°
2026-05-05 19:14 60.83872 42.11534 28737 ft 480 kts 85°
2026-05-05 19:15 60.84644 42.25082 28741 ft 480 kts 85°
2026-05-05 19:15 60.85407 42.38653 28747 ft 480 kts 85°
2026-05-05 19:16 60.86154 42.52225 28744 ft 480 kts 85°
2026-05-05 19:16 60.86892 42.65903 28744 ft 480 kts 85°
2026-05-05 19:17 60.87614 42.79495 28744 ft 480 kts 85°
2026-05-05 19:17 60.88322 42.93126 28745 ft 481 kts 85°
2026-05-05 19:18 60.89017 43.06761 28747 ft 481 kts 85°
2026-05-05 19:18 60.89700 43.20446 28746 ft 481 kts 85°
2026-05-05 19:19 60.90032 43.27235 28483 ft 485 kts 86°
2026-05-05 19:19 60.90368 43.34114 28021 ft 482 kts 86°
2026-05-05 19:19 60.90697 43.40965 27561 ft 479 kts 86°
2026-05-05 19:19 60.91018 43.47708 27117 ft 477 kts 86°
2026-05-05 19:20 60.91333 43.54457 26667 ft 466 kts 86°
2026-05-05 19:20 60.91636 43.60945 26236 ft 457 kts 86°
2026-05-05 19:20 60.91936 43.67432 25788 ft 449 kts 86°
2026-05-05 19:20 60.92227 43.73804 25356 ft 443 kts 86°
2026-05-05 19:21 60.92506 43.79994 24942 ft 437 kts 86°
2026-05-05 19:21 60.92782 43.86190 24526 ft 432 kts 86°
2026-05-05 19:21 60.93053 43.92342 24113 ft 428 kts 86°
2026-05-05 19:21 60.93315 43.98323 23716 ft 424 kts 86°
2026-05-05 19:22 60.93576 44.04338 23313 ft 420 kts 86°
2026-05-05 19:22 60.93834 44.10355 22840 ft 417 kts 86°
2026-05-05 19:22 60.94166 44.16198 22377 ft 415 kts 81°
2026-05-05 19:22 60.94804 44.22031 21916 ft 413 kts 75°
2026-05-05 19:23 60.95582 44.27647 21477 ft 411 kts 74°
2026-05-05 19:23 60.96392 44.33318 21035 ft 409 kts 74°
2026-05-05 19:23 60.97141 44.38901 20614 ft 408 kts 76°
2026-05-05 19:23 60.97847 44.44587 20179 ft 406 kts 76°
2026-05-05 19:24 60.98544 44.50225 19749 ft 405 kts 76°
2026-05-05 19:24 60.99233 44.55807 19311 ft 405 kts 76°
2026-05-05 19:24 60.99923 44.61441 18873 ft 404 kts 76°
2026-05-05 19:24 61.00604 44.67004 18450 ft 403 kts 76°
2026-05-05 19:25 61.01293 44.72648 18025 ft 403 kts 76°
2026-05-05 19:25 61.01969 44.78221 17538 ft 402 kts 76°
2026-05-05 19:25 61.02650 44.83838 17055 ft 401 kts 76°
2026-05-05 19:25 61.03318 44.89373 16616 ft 398 kts 76°
2026-05-05 19:26 61.03980 44.94879 16167 ft 391 kts 76°
2026-05-05 19:26 61.04619 45.00228 15749 ft 386 kts 76°
2026-05-05 19:26 61.05258 45.05591 15315 ft 381 kts 76°
2026-05-05 19:26 61.05888 45.10885 14892 ft 377 kts 76°
2026-05-05 19:27 61.06508 45.16126 14465 ft 373 kts 76°
2026-05-05 19:27 61.07112 45.21254 14056 ft 369 kts 76°
2026-05-05 19:27 61.07715 45.26390 13645 ft 365 kts 76°
2026-05-05 19:27 61.08309 45.31441 13208 ft 362 kts 76°
2026-05-05 19:28 61.08897 45.36495 12756 ft 359 kts 76°
2026-05-05 19:28 61.09477 45.41491 12315 ft 355 kts 76°
2026-05-05 19:28 61.10053 45.46461 11877 ft 352 kts 76°
2026-05-05 19:28 61.10610 45.51289 11502 ft 347 kts 76°
2026-05-05 19:29 61.11167 45.56123 11119 ft 343 kts 76°
2026-05-05 19:29 61.11712 45.60898 10748 ft 338 kts 76°
2026-05-05 19:29 61.12251 45.65615 10376 ft 334 kts 76°
2026-05-05 19:29 61.12777 45.70233 10021 ft 330 kts 76°
2026-05-05 19:30 61.13293 45.74808 9649 ft 327 kts 76°
2026-05-05 19:30 61.13809 45.79369 9245 ft 323 kts 76°
2026-05-05 19:30 61.14318 45.83882 8855 ft 320 kts 76°
2026-05-05 19:30 61.14818 45.88354 8476 ft 316 kts 76°
2026-05-05 19:31 61.15146 45.91286 8265 ft 313 kts 76°
2026-05-05 19:31 61.15795 45.97066 7807 ft 307 kts 76°
2026-05-05 19:31 61.16270 46.01365 7475 ft 304 kts 76°
2026-05-05 19:31 61.16731 46.05567 7146 ft 300 kts 76°
2026-05-05 19:32 61.17185 46.09788 6814 ft 297 kts 76°
2026-05-05 19:32 61.17630 46.13943 6483 ft 294 kts 76°
2026-05-05 19:32 61.18067 46.18009 6174 ft 291 kts 76°
2026-05-05 19:32 61.18507 46.22086 5855 ft 287 kts 76°
2026-05-05 19:33 61.18942 46.26101 5624 ft 282 kts 76°
2026-05-05 19:33 61.19363 46.30043 5331 ft 277 kts 76°
2026-05-05 19:33 61.19777 46.33873 5054 ft 273 kts 76°
2026-05-05 19:33 61.20190 46.37703 4836 ft 269 kts 77°
2026-05-05 19:34 61.20594 46.41476 4571 ft 265 kts 76°
2026-05-05 19:34 61.20994 46.45178 4324 ft 261 kts 76°
2026-05-05 19:34 61.21380 46.48784 4081 ft 257 kts 77°
2026-05-05 19:35 61.22068 46.55957 3701 ft 248 kts 78°
2026-05-05 19:35 61.22395 46.59443 3548 ft 245 kts 79°
2026-05-05 19:35 61.22705 46.62873 3401 ft 242 kts 78°
2026-05-05 19:35 61.23017 46.66302 3283 ft 239 kts 78°
2026-05-05 19:36 61.23323 46.69673 3117 ft 235 kts 78°
2026-05-05 19:36 61.23729 46.72883 3072 ft 230 kts 59°
2026-05-05 19:36 61.24741 46.75359 3026 ft 221 kts 37°
2026-05-05 19:36 61.25995 46.77050 3039 ft 210 kts
2026-05-05 19:37 61.27352 46.77006 3048 ft 191 kts 330°
2026-05-05 19:37 61.28342 46.75383 3049 ft 178 kts 307°
2026-05-05 19:37 61.29127 46.73429 3146 ft 178 kts 303°
2026-05-05 19:37 61.29871 46.71276 2989 ft 186 kts 300°
2026-05-05 19:38 61.30598 46.68994 2907 ft 192 kts 300°
2026-05-05 19:38 61.31359 46.66652 2834 ft 198 kts 300°
2026-05-05 19:38 61.32156 46.64322 2690 ft 201 kts 302°
2026-05-05 19:38 61.32983 46.61954 2541 ft 203 kts 302°
2026-05-05 19:39 61.33815 46.59586 2418 ft 203 kts 303°
2026-05-05 19:39 61.34646 46.57218 2306 ft 201 kts 303°
2026-05-05 19:39 61.35476 46.54877 2088 ft 200 kts 302°
2026-05-05 19:39 61.36288 46.52569 1978 ft 199 kts 304°
2026-05-05 19:40 61.37100 46.50259 1891 ft 194 kts 303°
2026-05-05 19:40 61.37896 46.48017 1863 ft 190 kts 302°
2026-05-05 19:40 61.38663 46.45819 1876 ft 189 kts 302°
2026-05-05 19:40 61.39329 46.43494 1815 ft 185 kts 282°
2026-05-05 19:41 61.39327 46.41744 1788 ft 181 kts 253°
2026-05-05 19:41 61.38165 46.39324 1835 ft 188 kts 200°
2026-05-05 19:41 61.36885 46.39509 2044 ft 185 kts 163°
2026-05-05 19:41 61.35732 46.40723 2172 ft 185 kts 153°
2026-05-05 19:42 61.34668 46.41978 2223 ft 176 kts 159°
2026-05-05 19:42 61.33591 46.43392 2038 ft 188 kts 146°
2026-05-05 19:42 61.32627 46.45230 1902 ft 184 kts 138°
2026-05-05 19:42 61.31765 46.47166 1997 ft 181 kts 135°
2026-05-05 19:43 61.31007 46.49237 1934 ft 179 kts 128°
2026-05-05 19:43 61.30301 46.51310 1872 ft 171 kts 128°
2026-05-05 19:43 61.29656 46.53282 1853 ft 163 kts 127°
2026-05-05 19:43 61.29058 46.55189 1842 ft 144 kts 127°
2026-05-05 19:44 61.28510 46.56894 1635 ft 140 kts 128°
2026-05-05 19:44 61.27972 46.58553 1438 ft 139 kts 128°
2026-05-05 19:44 61.27423 46.60226 1254 ft 140 kts 127°
2026-05-05 19:44 61.26875 46.61901 1078 ft 139 kts 126°
2026-05-05 19:45 61.26335 46.63565 936 ft 137 kts 125°
2026-05-05 19:45 61.25819 46.65174 776 ft 133 kts 124°
2026-05-05 19:45 61.25287 46.66684 596 ft 129 kts 133°
2026-05-05 19:45 61.24642 46.67997 352 ft 130 kts 140°
2026-05-05 19:46 61.23990 46.69157 206 ft 110 kts 139°
2026-05-05 19:46 61.23528 46.69978 207 ft 63 kts 137°
2026-05-05 19:46 61.23246 46.70490 195 ft 49 kts 134°
2026-05-05 19:46 61.23093 46.70819 203 ft 10 kts 153°
2026-05-05 19:47 61.23075 46.70777 205 ft 6 kts 313°
2026-05-05 19:47 61.23158 46.70649 197 ft 25 kts 323°
2026-05-05 19:47 61.23263 46.70462 205 ft 33 kts 318°
2026-05-05 19:47 61.23494 46.70052 198 ft 33 kts 319°
2026-05-05 19:48 61.23622 46.69838 200 ft 6 kts 351°
2026-05-05 19:48 61.23650 46.69866 202 ft 9 kts 40°
2026-05-05 19:48 61.23719 46.70027 198 ft 13 kts 50°
2026-05-05 19:48 61.23760 46.70095 200 ft 3 kts 343°
2026-05-05 19:49 61.23770 46.70073 203 ft 1 kts 282°
2026-05-05 19:49 61.23761 46.70032 202 ft 0 kts 227°
2026-05-05 19:49 61.23759 46.70027 209 ft 0 kts 226°